User: anonymous   Login
Location: Unspecified
(0.0000°N, 0.0000°E)
Time: 07:58:55
(UTC+02:00)
Language:

Orbus 21S - Orbit

View from above orbital plane
View from above orbital plane
View from above satellite
View from above satellite

Ground track
Ground track

The orbit data is extracted from the following two-line orbital elements,

1 20669U 90056C   16178.40627886 -.00000211  00000-0  97427-4 0  9995
2 20669  24.0930 236.3033 7098547 126.3405 321.5743  2.47476989218590
Epoch (UTC): 26 June 2016 09:45:02
Eccentricity: 0.7098547
inclination: 24.0930°
perigee height: 320 km
apogee height: 33098 km
right ascension of ascending node: 236.3033°
argument of perigee: 126.3405°
revolutions per day: 2.47476989
mean anomaly at epoch: 321.5743°
orbit number at epoch: 21859

The dashed part of the orbit path shows where the satellite is in the earth's shadow,  

DLR